Regional Weather Roundup
Issued by NWS

Home | Current Version | Previous Version | Graphics & Text | Print | Product List | Glossary On
Versions: 1 2 3 4 5 6 7 8 9 10 11 12 13 14 15 16 17 18 19 20 21 22 23 24 25 26 27 28 29 30 31 32 33 34 35 36 37 38 39 40 41 42 43 44 45 46 47 48 49 50
000
ASUS43 KIND 110709
RWRIN

WEATHER ROUNDUP FOR INDIANA
NATIONAL WEATHER SERVICE INDIANAPOLIS IN
300 AM EDT FRI JUL 11 2014

NOTE: "FAIR" INDICATES FEW OR NO CLOUDS BELOW 12,000 FEET WITH NO
SIGNIFICANT WEATHER AND/OR OBSTRUCTIONS TO VISIBILITY.

* - STATION DOES NOT REPORT WEATHER SUCH AS PRECIPITATION OR FOG.

+ - STATION NOT QUALITY CONTROLLED BY THE NATIONAL WEATHER SERVICE.
    USE DATA WITH CAUTION...ESPECIALLY DEWPOINT AND RELATIVE
    HUMIDITY OBSERVATIONS.

INZ001>003-010>013-019-020-110800-
NORTHWEST INDIANA

CITY           SKY/WX    TMP DP  RH WIND       PRES   REMARKS
GARY /AIRPORT/ PTCLDY    56  54  93 CALM      30.20R
KNOX *+        CLEAR     52  49  91 CALM      30.19S
LA PORTE +     PTCLDY    53  52  94 CALM      30.21R
MICHIGAN CITY+ CLEAR     54  52  94 CALM      30.21R
MONTICELLO +   CLEAR     54  53  94 CALM      30.19S
RENSSELAER +   PTCLDY    52  52 100 CALM      30.20R
VALPARAISO     CLEAR     54  50  86 E6        30.20S

$$

LMZ046-743>745-110800-
SOUTHERN LAKE MICHIGAN

STATION/POSITION TIME  TEMP WIND        PRES
                       AIR  DIR/SP/G
                 (UTC) (F)  (DEG/KT/KT) (MB)
BURNS HARBOR     0600   67  120/  3/  5 1022.4S
MICHIGAN CITY    0700   62  110/  5/  7   N/A

$$

INZ004-005-014>016-021>024-110800-
NORTH CENTRAL INDIANA

CITY           SKY/WX    TMP DP  RH WIND       PRES   REMARKS
GOSHEN         CLEAR     57  55  93 CALM      30.20S
LOGANSPORT +   CLEAR     54  50  87 CALM      30.20S
PERU/GRISSOM   CLEAR     57  57 100 CALM      30.19F
ROCHESTER +    CLEAR     57  55  94 CALM      30.20S
SOUTH BEND     CLEAR     56  51  84 CALM      30.21R
WARSAW +       CLEAR     55  54  94 CALM      30.20S

$$

INZ006>009-017-018-025>027-110800-
NORTHEAST INDIANA

CITY           SKY/WX    TMP DP  RH WIND       PRES   REMARKS
ANGOLA *+      CLEAR     55  54  94 CALM      30.21S
AUBURN +       CLEAR     59  54  82 CALM      30.21S
FORT WAYNE     CLEAR     58  54  86 CALM      30.20S
HUNTINGTON +   CLEAR     56  54  94 CALM      30.19F

$$

INZ028-029-035-036-043>045-051>053-110800-
WEST CENTRAL INDIANA

CITY           SKY/WX    TMP DP  RH WIND       PRES   REMARKS
GREENCASTLE +  CLEAR     59  54  82 CALM      30.19F
LAFAYETTE      CLEAR     57  55  93 CALM      30.19S
TERRE HAUTE    CLEAR     58  56  93 CALM      30.17F

$$

INZ030>032-037>040-046>048-054>057-064-065-110800-
CENTRAL INDIANA

CITY           SKY/WX    TMP DP  RH WIND       PRES   REMARKS
CP ATTERBURY + CLEAR     55  54  94 CALM      30.19F
INDIANAPOLIS   CLEAR     64  53  67 NE5       30.18F
-EAGLE CREEK   CLEAR     60  53  77 CALM      30.18F
KOKOMO *+      CLEAR     55  52  88 CALM      30.20S
MARION +       CLEAR     54  52  94 CALM      30.20F
MT COMFORT *+  CLEAR     55 N/A N/A CALM      30.20S
SHELBYVILLE    CLEAR     59  54  83 CALM      30.19S
ZIONSVILLE +   CLEAR     58  55  88 CALM      30.20F

$$

INZ033-034-041-042-049-050-058-059-110800-
EAST CENTRAL INDIANA

CITY           SKY/WX    TMP DP  RH WIND       PRES   REMARKS
MUNCIE         CLEAR     58  53  84 CALM      30.20S

$$

INZ060-061-067>069-081>083-085>088-110800-
SOUTHWEST INDIANA

CITY           SKY/WX    TMP DP  RH WIND       PRES   REMARKS
EVANSVILLE     CLEAR     68  60  75 N5        30.15S
HUNTINGBURG *+ CLEAR     63  57  82 NE5       30.16F
WASHINGTON +   CLEAR     60  59  96 CALM      30.16S

$$

INZ062-063-066-070>080-084-089>092-110800-
SOUTH CENTRAL AND SOUTHEAST INDIANA

CITY           SKY/WX    TMP DP  RH WIND       PRES   REMARKS
BLOOMINGTON    CLEAR     59  55  87 CALM      30.18F

$$




USA.gov is the U.S. government's official web portal to all federal, state and local government web resources and services.